Home   Weather   Kalisz   Past weeks

Flag for Poland Past Weather in Kalisz, Poland — Yesterday and Last 2 Weeks

Now
38 °F

Overcast.


Feels Like: 33 °F
Forecast: 32 / 46 °F
Wind: 6 mph from Southwest

Location: Kalisz

Current Time: Feb 23, 2017 at 5:51:47 am

Latest Report: Feb 23, 2017 at 5:00 am


Visibility: 31 mi

Pressure: 29.50 "Hg

Humidity: 95%

Dew Point: 37 °F

Location of KaliszLocation

Past Weather in Kalisz — Graph

°F

Kalisz Temperature Yesterday

Maximum temperature yesterday: 49 °F (at 3:00 pm)
Minimum temperature yesterday: 34 °F (at 4:00 am)
Average temperature yesterday: 41 °F

High & Low Weather Summary for the Past Weeks

 TemperatureHumidityPressure
High49 °F (Feb 22, 3:00 pm)100% (Feb 17, 9:00 am)30.74 "Hg (Feb 17, 9:00 am)
Low15 °F (Feb 11, 7:00 am)53% (Feb 15, 4:00 pm)29.41 "Hg (Feb 22, 8:00 pm)
Average30 °F85%30.30 "Hg
* Reported Feb 8 4:00 am — Feb 23 4:00 am, Kalisz, Weather by CustomWeather, © 2017

Note: Actual official high and low records may vary slightly from our data, if they occured in-between our weather recording intervals... More about our weather records

Advertising

Kalisz Weather History for the Previous 24 Hours

Scroll right to see more
 ConditionsComfort  
Time TempWeatherWind HumidityBarometerVisibility
4:00 am
Thu, Feb 23
38 °FOvercast.7 mph94%29.50 "Hg31 mi
3:00 am38 °FOvercast.8 mph95%29.50 "Hg31 mi
2:00 am38 °FPassing clouds.9 mph95%29.50 "Hg31 mi
1:00 am37 °FPassing clouds.7 mph99%29.50 "Hg19 mi
12:00 am36 °FPassing clouds.6 mph97%29.50 "Hg17 mi
11:00 pm
Wed, Feb 22
38 °FRain showers. Overcast.8 mph95%29.50 "Hg6 mi
10:00 pm39 °FRain showers. Overcast.7 mph94%29.50 "Hg6 mi
9:00 pm43 °FRain showers. Overcast.10 mph89%29.44 "Hg6 mi
8:00 pm45 °FRain showers. Overcast.14 mph88%29.41 "Hg7 mi
7:00 pm47 °FRain showers. Overcast.8 mph96%29.44 "Hg6 mi
6:00 pm47 °FRain showers. Overcast.8 mph96%29.44 "Hg6 mi
5:00 pm48 °FOvercast.10 mph93%29.44 "Hg19 mi
4:00 pm48 °FOvercast.9 mph95%29.44 "Hg12 mi
3:00 pm49 °FLight rain. Overcast.12 mph91%29.44 "Hg12 mi
2:00 pm47 °FLight rain. Overcast.8 mph96%29.47 "Hg5 mi
1:00 pm46 °FLight rain. Overcast.9 mph96%29.47 "Hg5 mi
12:00 pm44 °FRain. Overcast.9 mph98%29.50 "Hg3 mi
11:00 am42 °FRain. Low clouds.12 mph96%29.54 "Hg2 mi
10:00 am40 °FLight rain. Low clouds.9 mph96%29.58 "Hg2 mi
9:00 am38 °FLight rain. Overcast.5 mph90%29.62 "Hg5 mi
8:00 am38 °FOvercast.6 mph87%29.67 "Hg7 mi
7:00 am36 °FOvercast.5 mph94%29.72 "Hg6 mi
6:00 am36 °FOvercast.5 mph96%29.76 "Hg6 mi
5:00 am35 °FFog.5 mph97%29.78 "Hg4 mi
Weather by CustomWeather, © 2017

See weather overviewHow to use our weather pages